QPF
0.03 0.03 0.03 0.02 0.02 0.03 0.03 0.02 0.02 0.03 0.03 0.03 0.02 0.03 0.03 0.04 0.05 0.05 0.05 0.04 0.03 0.03 0.03 0.02 0.02 0.03 0.04 0.03 0.02 0.02 0.02 0.03 0.03 0.03 0.03 0.03 0.02 0.02 0.02 0.02 0.01 0.02 0.02
0.02 0.02 0.03 0.03 0.02 0.02 0.02 0.02 0.02 0.02 0.02 0.03 0.02 0.03 0.04 0.03 0.03 0.03 0.03 0.03 0.02 0.02 0.03 0.02 0.02 0.03 0.05 0.03 0.03 0.03 0.03 0.03 0.03 0.04 0.04 0.03 0.03 0.03 0.03 0.03 0.02 0.02 0.02
0.02 0.02 0.02 0.02 0.02 0.02 0.02 0.02 0.02 0.03 0.03 0.03 0.03 0.03 0.03 0.03 0.03 0.03 0.02 0.02 0.01 0.02 0.03 0.03 0.03 0.04 0.05 0.04 0.04 0.03 0.03 0.02 0.02 0.03 0.03 0.04 0.04 0.04 0.03 0.03 0.02 0.02 0.02
0.01 0.02 0.03 0.04 0.03 0.02 0.02 0.02 0.02 0.03 0.03 0.04 0.03 0.03 0.03 0.03 0.03 0.03 0.03 0.03 0.03 0.02 0.02 0.03 0.03 0.04 0.03 0.04 0.04 0.04 0.03 0.03 0.02 0.02 0.02 0.02 0.03 0.03 0.02 0.02 0.01 0.01 0.01
0.01 0.01 0.01 0.03 0.04 0.04 0.02 0.02 0.03 0.04 0.04 0.03 0.02 0.02 0.02 0.04 0.03 0.03 0.03 0.04 0.03 0.02 0.02 0.02 0.02 0.01 0.01 0.02 0.02 0.02 0.03 0.03 0.02 0.02 0.02 0.02 0.02 0.03 0.03 0.02 0.02 0.01 0.01
0.02 0.01 0.01 0.01 0.02 0.03 0.03 0.03 0.05 0.05 0.04 0.03 0.03 0.02 0.03 0.02 0.02 0.03 0.03 0.05 0.05 0.03 0.02 0.02 0.01 0.01 0.01 0.01 0.01 0.01 0.02 0.02 0.02 0.02 0.02 0.02 0.03 0.02 0.02 0.02 0.01 0.02 0.02
0.03 0.02 0.01 0.01 0.01 0.01 0.02 0.02 0.04 0.04 0.03 0.02 0.02 0.03 0.04 0.03 0.01 0.02 0.03 0.05 0.05 0.05 0.05 0.04 0.02 0.01 0.01 0.01 0.01 0.01 0.01 0.01 0.01 0.01 0.01 0.02 0.03 0.02 0.02 0.02 0.02 0.02 0.03
0.03 0.03 0.03 0.02 0.02 0.01 0.01 0.02 0.03 0.03 0.03 0.03 0.02 0.02 0.02 0.02 0.01 0.02 0.03 0.04 0.05 0.05 0.05 0.05 0.04 0.02 0.01 0.01 0.01 0.01 0.01 0.01 0.01 0.01 0.01 0.02 0.02 0.02 0.02 0.02 0.02 0.02 0.02
0.03 0.03 0.03 0.03 0.02 0.02 0.02 0.02 0.03 0.04 0.04 0.03 0.02 0.02 0.02 0.02 0.01 0.01 0.02 0.03 0.04 0.04 0.05 0.04 0.03 0.03 0.02 0.01 0.01 0.02 0.01 0.01 0.01 0.01 0.01 0.01 0.01 0.01 0.01 0.01 0.02 0.01 0.02
0.02 0.02 0.02 0.02 0.01 0.01 0.02 0.02 0.02 0.03 0.03 0.03 0.02 0.03 0.03 0.02 0.02 0.01 0.01 0.02 0.02 0.03 0.04 0.04 0.03 0.02 0.02 0.02 0.02 0.02 0.02 0.02 0.01 0.01 0.01 0.00 0.00 0.00 0.01 0.01 0.01 0.02 0.02
0.01 0.01 0.01 0.01 0.01 0.01 0.01 0.01 0.02 0.02 0.02 0.02 0.02 0.02 0.02 0.02 0.02 0.02 0.02 0.03 0.02 0.02 0.02 0.03 0.03 0.02 0.02 0.02 0.02 0.02 0.02 0.02 0.02 0.02 0.02 0.02 0.02 0.02 0.02 0.01 0.01 0.03 0.04
0.01 0.01 0.01 0.01 0.01 0.01 0.02 0.01 0.02 0.02 0.02 0.02 0.02 0.02 0.02 0.02 0.02 0.02 0.02 0.03 0.03 0.03 0.03 0.02 0.02 0.03 0.03 0.03 0.03 0.03 0.02 0.01 0.01 0.01 0.01 0.01 0.02 0.02 0.02 0.02 0.02 0.02 0.03
0.01 0.02 0.01 0.02 0.02 0.03 0.03 0.03 0.02 0.02 0.02 0.02 0.02 0.02 0.02 0.02 0.02 0.03 0.03 0.02 0.02 0.03 0.03 0.03 0.02 0.02 0.03 0.03 0.03 0.04 0.03 0.02 0.01 0.01 0.01 0.01 0.01 0.02 0.03 0.03 0.03 0.03 0.03
0.02 0.02 0.02 0.03 0.03 0.03 0.04 0.04 0.03 0.02 0.02 0.02 0.02 0.02 0.02 0.02 0.01 0.01 0.03 0.03 0.03 0.02 0.02 0.01 0.01 0.01 0.01 0.01 0.02 0.02 0.02 0.02 0.03 0.02 0.02 0.01 0.02 0.02 0.03 0.03 0.04 0.04 0.03
0.02 0.02 0.02 0.02 0.03 0.03 0.03 0.04 0.03 0.02 0.02 0.02 0.02 0.02 0.02 0.02 0.02 0.02 0.02 0.02 0.02 0.02 0.03 0.02 0.01 0.01 0.01 0.01 0.01 0.01 0.01 0.02 0.02 0.02 0.02 0.03 0.03 0.03 0.03 0.04 0.05 0.06 0.06
0.02 0.03 0.03 0.03 0.03 0.03 0.02 0.04 0.03 0.02 0.01 0.01 0.02 0.03 0.01 0.01 0.01 0.01 0.01 0.02 0.02 0.03 0.03 0.03 0.02 0.02 0.02 0.02 0.01 0.01 0.01 0.01 0.01 0.02 0.02 0.02 0.03 0.03 0.04 0.04 0.04 0.05 0.05
0.03 0.03 0.03 0.03 0.03 0.03 0.03 0.03 0.04 0.03 0.02 0.01 0.01 0.02 0.02 0.02 0.01 0.01 0.01 0.02 0.02 0.03 0.04 0.05 0.05 0.04 0.04 0.03 0.02 0.02 0.01 0.01 0.01 0.01 0.01 0.01 0.02 0.03 0.03 0.03 0.03 0.03 0.03
0.02 0.02 0.02 0.02 0.02 0.02 0.03 0.03 0.03 0.03 0.03 0.02 0.02 0.02 0.02 0.03 0.02 0.03 0.02 0.02 0.01 0.02 0.03 0.04 0.05 0.05 0.05 0.05 0.04 0.04 0.03 0.03 0.02 0.01 0.02 0.02 0.02 0.02 0.02 0.02 0.03 0.02 0.02
0.03 0.02 0.02 0.02 0.02 0.02 0.04 0.05 0.04 0.03 0.03 0.02 0.02 0.03 0.03 0.03 0.03 0.03 0.04 0.03 0.02 0.01 0.02 0.03 0.04 0.04 0.05 0.05 0.05 0.05 0.05 0.05 0.04 0.03 0.02 0.02 0.02 0.02 0.02 0.02 0.02 0.02 0.02
0.04 0.03 0.02 0.02 0.02 0.03 0.05 0.05 0.04 0.04 0.03 0.02 0.02 0.02 0.02 0.03 0.03 0.03 0.03 0.02 0.03 0.03 0.02 0.02 0.03 0.04 0.05 0.05 0.06 0.06 0.07 0.06 0.06 0.05 0.05 0.05 0.04 0.04 0.03 0.03 0.03 0.03 0.02
0.03 0.04 0.03 0.03 0.03 0.03 0.05 0.06 0.05 0.04 0.03 0.02 0.02 0.02 0.03 0.03 0.03 0.04 0.04 0.03 0.03 0.03 0.03 0.03 0.03 0.03 0.04 0.04 0.04 0.05 0.06 0.07 0.07 0.07 0.07 0.06 0.06 0.06 0.06 0.06 0.06 0.05 0.04
0.04 0.04 0.04 0.04 0.05 0.05 0.05 0.07 0.07 0.04 0.03 0.02 0.02 0.03 0.03 0.03 0.04 0.05 0.04 0.03 0.03 0.03 0.02 0.03 0.03 0.03 0.03 0.03 0.03 0.04 0.04 0.05 0.05 0.05 0.05 0.05 0.05 0.05 0.05 0.05 0.05 0.05 0.04
0.06 0.06 0.05 0.04 0.05 0.05 0.05 0.07 0.09 0.07 0.05 0.04 0.03 0.03 0.03 0.03 0.04 0.05 0.04 0.03 0.03 0.03 0.03 0.04 0.04 0.03 0.03 0.02 0.02 0.02 0.03 0.03 0.03 0.02 0.02 0.02 0.03 0.03 0.03 0.02 0.02 0.03 0.03
0.06 0.07 0.06 0.06 0.06 0.05 0.04 0.05 0.07 0.07 0.07 0.06 0.04 0.03 0.03 0.04 0.04 0.04 0.05 0.04 0.03 0.03 0.04 0.03 0.04 0.04 0.03 0.02 0.02 0.02 0.02 0.02 0.01 0.02 0.01 0.02 0.02 0.02 0.03 0.03 0.03 0.02 0.02
0.05 0.05 0.07 0.06 0.05 0.04 0.04 0.04 0.05 0.05 0.05 0.04 0.04 0.03 0.03 0.04 0.04 0.04 0.04 0.04 0.03 0.02 0.02 0.02 0.02 0.03 0.02 0.01 0.01 0.01 0.01 0.01 0.01 0.02 0.02 0.02 0.02 0.02 0.03 0.03 0.03 0.03 0.03
0.05 0.05 0.06 0.07 0.06 0.05 0.05 0.04 0.04 0.04 0.04 0.04 0.03 0.02 0.02 0.03 0.04 0.04 0.03 0.03 0.03 0.03 0.03 0.02 0.02 0.03 0.03 0.02 0.01 0.01 0.01 0.01 0.01 0.02 0.02 0.02 0.02 0.03 0.03 0.03 0.03 0.02 0.02
MSLP
1008.90 1009.28 1009.67 1010.07 1010.47 1010.87 1011.27 1011.66 1012.03 1012.38 1012.69 1012.93 1013.11 1013.22 1013.26 1013.25 1013.20 1013.14 1013.08 1013.04 1013.02 1013.02 1013.04 1013.05 1013.04 1013.00 1012.91 1012.78 1012.60 1012.37 1012.13 1011.88 1011.63 1011.40 1011.19 1011.01 1010.86 1010.74 1010.63 1010.53 1010.41 1010.28 1010.10
1009.43 1009.79 1010.12 1010.44 1010.73 1011.02 1011.29 1011.57 1011.84 1012.10 1012.34 1012.54 1012.69 1012.80 1012.86 1012.87 1012.85 1012.82 1012.80 1012.79 1012.80 1012.83 1012.87 1012.91 1012.94 1012.93 1012.88 1012.78 1012.64 1012.46 1012.25 1012.03 1011.80 1011.58 1011.38 1011.21 1011.05 1010.92 1010.79 1010.67 1010.54 1010.40 1010.22
1009.76 1010.10 1010.38 1010.62 1010.82 1010.99 1011.15 1011.31 1011.49 1011.67 1011.85 1012.03 1012.19 1012.31 1012.41 1012.47 1012.50 1012.53 1012.55 1012.59 1012.64 1012.71 1012.78 1012.85 1012.91 1012.93 1012.91 1012.85 1012.74 1012.60 1012.42 1012.22 1012.01 1011.81 1011.62 1011.45 1011.29 1011.15 1011.02 1010.89 1010.76 1010.62 1010.46
1009.86 1010.17 1010.41 1010.58 1010.69 1010.76 1010.82 1010.90 1010.99 1011.12 1011.27 1011.45 1011.62 1011.79 1011.93 1012.06 1012.16 1012.25 1012.34 1012.43 1012.53 1012.64 1012.75 1012.86 1012.94 1013.00 1013.01 1012.98 1012.90 1012.78 1012.63 1012.45 1012.26 1012.07 1011.89 1011.72 1011.56 1011.42 1011.29 1011.18 1011.06 1010.94 1010.80
1009.74 1010.02 1010.22 1010.33 1010.36 1010.36 1010.35 1010.35 1010.40 1010.49 1010.64 1010.82 1011.03 1011.24 1011.45 1011.65 1011.83 1011.99 1012.15 1012.30 1012.45 1012.61 1012.76 1012.91 1013.03 1013.12 1013.16 1013.16 1013.11 1013.01 1012.88 1012.71 1012.53 1012.34 1012.16 1011.99 1011.84 1011.71 1011.59 1011.49 1011.39 1011.30 1011.20
1009.49 1009.74 1009.89 1009.94 1009.93 1009.86 1009.80 1009.76 1009.78 1009.85 1010.00 1010.20 1010.44 1010.71 1010.97 1011.24 1011.49 1011.72 1011.94 1012.16 1012.37 1012.58 1012.78 1012.97 1013.13 1013.26 1013.34 1013.37 1013.34 1013.26 1013.14 1012.98 1012.80 1012.61 1012.42 1012.25 1012.09 1011.96 1011.85 1011.77 1011.69 1011.63 1011.58
1009.25 1009.44 1009.54 1009.55 1009.48 1009.38 1009.28 1009.22 1009.21 1009.28 1009.43 1009.64 1009.91 1010.21 1010.52 1010.83 1011.13 1011.42 1011.70 1011.97 1012.24 1012.51 1012.76 1013.00 1013.22 1013.39 1013.51 1013.57 1013.57 1013.51 1013.39 1013.23 1013.04 1012.84 1012.64 1012.45 1012.28 1012.15 1012.04 1011.96 1011.91 1011.87 1011.85
1009.14 1009.27 1009.31 1009.27 1009.16 1009.03 1008.90 1008.82 1008.80 1008.85 1008.99 1009.20 1009.47 1009.78 1010.10 1010.43 1010.76 1011.09 1011.41 1011.73 1012.05 1012.37 1012.68 1012.98 1013.25 1013.47 1013.64 1013.73 1013.76 1013.71 1013.59 1013.43 1013.22 1013.00 1012.78 1012.57 1012.38 1012.23 1012.11 1012.03 1011.98 1011.96 1011.96
1009.26 1009.31 1009.29 1009.19 1009.05 1008.89 1008.74 1008.63 1008.59 1008.62 1008.73 1008.92 1009.16 1009.45 1009.75 1010.07 1010.40 1010.73 1011.07 1011.42 1011.78 1012.14 1012.51 1012.86 1013.18 1013.46 1013.67 1013.80 1013.85 1013.82 1013.71 1013.54 1013.32 1013.07 1012.82 1012.58 1012.37 1012.19 1012.05 1011.96 1011.90 1011.88 1011.89
1009.62 1009.60 1009.51 1009.37 1009.19 1008.99 1008.81 1008.68 1008.60 1008.60 1008.67 1008.81 1009.00 1009.24 1009.50 1009.78 1010.08 1010.39 1010.73 1011.08 1011.46 1011.85 1012.25 1012.65 1013.01 1013.33 1013.58 1013.75 1013.82 1013.80 1013.70 1013.52 1013.29 1013.03 1012.76 1012.49 1012.25 1012.04 1011.88 1011.76 1011.68 1011.65 1011.64
1010.18 1010.09 1009.94 1009.76 1009.54 1009.31 1009.10 1008.93 1008.82 1008.77 1008.79 1008.86 1008.99 1009.16 1009.35 1009.58 1009.82 1010.10 1010.40 1010.74 1011.11 1011.51 1011.92 1012.34 1012.73 1013.07 1013.35 1013.54 1013.63 1013.63 1013.54 1013.37 1013.13 1012.86 1012.57 1012.29 1012.03 1011.80 1011.62 1011.47 1011.37 1011.32 1011.29
1010.85 1010.70 1010.51 1010.28 1010.03 1009.77 1009.54 1009.33 1009.18 1009.09 1009.05 1009.06 1009.11 1009.20 1009.33 1009.48 1009.66 1009.88 1010.13 1010.43 1010.77 1011.15 1011.54 1011.95 1012.33 1012.68 1012.96 1013.16 1013.27 1013.28 1013.21 1013.05 1012.83 1012.57 1012.28 1012.00 1011.74 1011.50 1011.30 1011.15 1011.03 1010.95 1010.90
1011.52 1011.33 1011.10 1010.84 1010.56 1010.28 1010.02 1009.79 1009.61 1009.47 1009.38 1009.33 1009.33 1009.35 1009.40 1009.48 1009.60 1009.74 1009.94 1010.17 1010.46 1010.78 1011.13 1011.49 1011.85 1012.17 1012.43 1012.63 1012.74 1012.77 1012.71 1012.57 1012.38 1012.15 1011.89 1011.63 1011.39 1011.16 1010.97 1010.81 1010.69 1010.60 1010.54
1012.11 1011.89 1011.63 1011.34 1011.04 1010.74 1010.47 1010.22 1010.02 1009.85 1009.73 1009.64 1009.59 1009.56 1009.55 1009.57 1009.61 1009.69 1009.81 1009.97 1010.18 1010.42 1010.70 1010.99 1011.29 1011.56 1011.79 1011.96 1012.06 1012.10 1012.06 1011.96 1011.81 1011.62 1011.42 1011.21 1011.00 1010.81 1010.65 1010.51 1010.39 1010.30 1010.23
1012.59 1012.34 1012.05 1011.74 1011.42 1011.12 1010.83 1010.58 1010.36 1010.19 1010.05 1009.94 1009.85 1009.78 1009.73 1009.70 1009.68 1009.69 1009.72 1009.80 1009.92 1010.07 1010.25 1010.45 1010.66 1010.87 1011.04 1011.18 1011.28 1011.32 1011.30 1011.24 1011.15 1011.02 1010.87 1010.73 1010.58 1010.45 1010.33 1010.22 1010.13 1010.06 1009.99
1012.97 1012.68 1012.37 1012.04 1011.71 1011.40 1011.11 1010.85 1010.64 1010.46 1010.31 1010.19 1010.09 1009.99 1009.90 1009.82 1009.74 1009.68 1009.63 1009.62 1009.64 1009.69 1009.77 1009.87 1009.99 1010.12 1010.24 1010.34 1010.41 1010.46 1010.47 1010.46 1010.41 1010.35 1010.28 1010.20 1010.13 1010.05 1009.99 1009.93 1009.89 1009.84 1009.78
1013.29 1012.98 1012.64 1012.29 1011.95 1011.62 1011.33 1011.08 1010.87 1010.69 1010.53 1010.40 1010.27 1010.15 1010.02 1009.88 1009.74 1009.61 1009.48 1009.37 1009.29 1009.25 1009.23 1009.24 1009.28 1009.33 1009.40 1009.46 1009.52 1009.57 1009.61 1009.64 1009.65 1009.65 1009.65 1009.64 1009.63 1009.62 1009.62 1009.61 1009.60 1009.59 1009.56
1013.63 1013.29 1012.92 1012.55 1012.20 1011.87 1011.57 1011.32 1011.10 1010.91 1010.73 1010.57 1010.41 1010.23 1010.05 1009.85 1009.64 1009.42 1009.21 1009.02 1008.85 1008.71 1008.61 1008.55 1008.52 1008.51 1008.54 1008.58 1008.64 1008.70 1008.76 1008.82 1008.88 1008.93 1008.99 1009.04 1009.09 1009.14 1009.18 1009.23 1009.26 1009.28 1009.29
1014.03 1013.66 1013.27 1012.89 1012.52 1012.18 1011.88 1011.61 1011.37 1011.15 1010.94 1010.73 1010.50 1010.25 1009.98 1009.70 1009.40 1009.10 1008.80 1008.52 1008.28 1008.07 1007.90 1007.79 1007.71 1007.68 1007.68 1007.72 1007.78 1007.85 1007.93 1008.02 1008.12 1008.21 1008.31 1008.41 1008.50 1008.60 1008.69 1008.77 1008.85 1008.91 1008.94
1014.50 1014.11 1013.71 1013.32 1012.95 1012.61 1012.29 1012.00 1011.72 1011.45 1011.17 1010.87 1010.55 1010.20 1009.82 1009.43 1009.03 1008.63 1008.25 1007.89 1007.58 1007.33 1007.12 1006.98 1006.89 1006.85 1006.86 1006.90 1006.97 1007.06 1007.17 1007.29 1007.41 1007.53 1007.66 1007.78 1007.91 1008.03 1008.16 1008.27 1008.38 1008.48 1008.56
1015.01 1014.62 1014.23 1013.85 1013.48 1013.14 1012.81 1012.48 1012.15 1011.80 1011.43 1011.02 1010.58 1010.09 1009.59 1009.07 1008.55 1008.05 1007.58 1007.17 1006.81 1006.53 1006.31 1006.17 1006.09 1006.07 1006.10 1006.17 1006.26 1006.38 1006.50 1006.64 1006.78 1006.92 1007.06 1007.20 1007.35 1007.49 1007.64 1007.79 1007.93 1008.06 1008.18
1015.52 1015.15 1014.78 1014.42 1014.07 1013.73 1013.38 1013.01 1012.62 1012.19 1011.71 1011.17 1010.59 1009.96 1009.32 1008.66 1008.03 1007.43 1006.89 1006.42 1006.04 1005.75 1005.54 1005.42 1005.38 1005.40 1005.46 1005.56 1005.69 1005.83 1005.97 1006.12 1006.27 1006.42 1006.57 1006.73 1006.89 1007.05 1007.23 1007.40 1007.58 1007.74 1007.90
1015.97 1015.63 1015.31 1014.98 1014.66 1014.33 1013.96 1013.56 1013.10 1012.58 1011.99 1011.32 1010.60 1009.84 1009.05 1008.28 1007.54 1006.86 1006.26 1005.77 1005.38 1005.10 1004.93 1004.85 1004.85 1004.91 1005.02 1005.16 1005.32 1005.48 1005.64 1005.80 1005.96 1006.12 1006.28 1006.44 1006.61 1006.80 1007.00 1007.20 1007.41 1007.61 1007.80
1016.32 1016.04 1015.76 1015.48 1015.19 1014.87 1014.50 1014.07 1013.56 1012.95 1012.26 1011.49 1010.65 1009.76 1008.87 1008.00 1007.19 1006.45 1005.83 1005.33 1004.95 1004.70 1004.57 1004.54 1004.59 1004.70 1004.85 1005.03 1005.21 1005.39 1005.57 1005.73 1005.89 1006.05 1006.22 1006.39 1006.58 1006.79 1007.01 1007.25 1007.49 1007.73 1007.95
1016.58 1016.35 1016.12 1015.89 1015.64 1015.34 1014.97 1014.52 1013.96 1013.30 1012.54 1011.69 1010.76 1009.80 1008.84 1007.92 1007.06 1006.31 1005.69 1005.20 1004.86 1004.65 1004.57 1004.59 1004.68 1004.84 1005.02 1005.22 1005.42 1005.61 1005.78 1005.95 1006.11 1006.27 1006.44 1006.63 1006.83 1007.06 1007.31 1007.57 1007.83 1008.10 1008.35
1016.77 1016.58 1016.41 1016.22 1016.00 1015.72 1015.37 1014.91 1014.34 1013.65 1012.85 1011.96 1011.00 1010.01 1009.02 1008.09 1007.24 1006.51 1005.91 1005.47 1005.17 1005.01 1004.98 1005.04 1005.17 1005.35 1005.55 1005.76 1005.96 1006.14 1006.31 1006.47 1006.62 1006.78 1006.95 1007.14 1007.35 1007.59 1007.85 1008.13 1008.41 1008.69 1008.94
Thickness
5717 5716 5714 5713 5712 5711 5710 5710 5709 5708 5707 5707 5707 5706 5706 5704 5703 5702 5703 5703 5703 5702 5703 5703 5703 5704 5705 5707 5707 5707 5707 5705 5701 5703 5704 5703 5699 5698 5697 5696 5696 5694 5695
5713 5710 5709 5708 5707 5706 5706 5706 5705 5704 5704 5704 5704 5704 5703 5703 5701 5701 5700 5701 5701 5700 5701 5701 5701 5703 5701 5703 5703 5704 5704 5703 5700 5697 5698 5699 5696 5696 5695 5693 5694 5695 5694
5708 5705 5703 5702 5702 5701 5701 5701 5701 5700 5699 5700 5701 5700 5700 5700 5699 5699 5699 5699 5699 5699 5699 5699 5699 5699 5698 5700 5699 5701 5701 5701 5699 5697 5696 5696 5696 5695 5692 5692 5693 5691 5693
5702 5700 5698 5696 5696 5696 5696 5696 5696 5696 5696 5696 5697 5698 5698 5697 5697 5696 5696 5696 5696 5697 5697 5697 5697 5696 5696 5695 5696 5696 5697 5696 5695 5694 5694 5694 5693 5693 5691 5691 5690 5690 5691
5696 5695 5693 5692 5691 5691 5691 5691 5691 5691 5692 5692 5693 5693 5694 5694 5694 5693 5693 5693 5693 5694 5694 5694 5694 5693 5692 5691 5694 5693 5693 5692 5693 5692 5692 5692 5691 5689 5689 5690 5688 5688 5689
5690 5689 5689 5687 5686 5686 5685 5685 5686 5686 5687 5687 5688 5688 5689 5691 5688 5686 5686 5689 5690 5690 5690 5690 5690 5689 5686 5685 5686 5686 5686 5687 5688 5688 5689 5688 5686 5688 5687 5687 5686 5685 5684
5683 5683 5682 5682 5681 5681 5681 5680 5679 5680 5681 5681 5682 5683 5683 5683 5681 5680 5680 5683 5685 5686 5686 5686 5689 5689 5685 5685 5682 5680 5681 5680 5680 5683 5685 5685 5685 5685 5683 5683 5681 5681 5681
5677 5676 5676 5675 5675 5674 5675 5674 5674 5675 5675 5675 5676 5678 5678 5677 5675 5675 5675 5678 5681 5681 5682 5683 5683 5683 5682 5681 5682 5682 5682 5681 5679 5679 5680 5682 5682 5681 5680 5679 5679 5678 5679
5670 5670 5670 5669 5668 5668 5668 5668 5669 5669 5669 5670 5671 5672 5673 5673 5670 5670 5669 5675 5676 5677 5678 5678 5678 5678 5674 5673 5676 5677 5678 5679 5678 5676 5676 5675 5674 5674 5673 5675 5676 5676 5676
5664 5664 5664 5663 5662 5661 5662 5662 5663 5663 5664 5665 5666 5667 5668 5669 5666 5664 5663 5671 5672 5673 5673 5674 5671 5672 5669 5667 5670 5672 5672 5674 5675 5675 5672 5672 5672 5671 5669 5669 5673 5673 5674
5657 5657 5657 5656 5656 5656 5656 5657 5657 5658 5658 5659 5660 5662 5663 5664 5661 5659 5658 5665 5668 5668 5670 5670 5670 5665 5663 5662 5663 5666 5667 5667 5670 5671 5672 5673 5673 5672 5671 5669 5670 5670 5669
5650 5650 5650 5650 5651 5652 5651 5651 5651 5652 5652 5653 5654 5655 5658 5658 5657 5655 5653 5654 5658 5662 5664 5666 5666 5660 5657 5656 5657 5659 5658 5658 5664 5667 5669 5670 5671 5671 5671 5669 5667 5666 5665
5642 5642 5643 5643 5643 5645 5645 5645 5646 5646 5647 5649 5650 5651 5653 5655 5653 5650 5648 5648 5649 5653 5657 5656 5654 5652 5650 5651 5650 5651 5651 5656 5660 5662 5664 5667 5668 5668 5666 5665 5664 5662 5661
5633 5634 5636 5636 5636 5636 5638 5640 5641 5642 5643 5644 5645 5647 5648 5649 5650 5648 5646 5644 5642 5644 5648 5647 5645 5644 5645 5646 5647 5647 5650 5654 5656 5657 5660 5662 5663 5663 5662 5662 5661 5660 5658
5627 5628 5629 5629 5629 5629 5631 5632 5634 5635 5636 5635 5639 5640 5641 5642 5642 5639 5641 5642 5643 5642 5641 5642 5643 5644 5645 5646 5648 5649 5650 5651 5650 5652 5653 5654 5656 5657 5657 5656 5655 5654 5653
5619 5620 5621 5622 5623 5624 5624 5625 5625 5626 5626 5626 5627 5628 5633 5632 5630 5630 5630 5631 5631 5631 5633 5638 5639 5641 5642 5644 5645 5646 5646 5646 5647 5648 5648 5648 5648 5649 5650 5650 5649 5649 5648
5611 5611 5613 5614 5615 5617 5618 5618 5620 5620 5618 5618 5619 5620 5621 5621 5621 5621 5621 5622 5622 5622 5628 5633 5635 5636 5638 5639 5641 5642 5643 5643 5643 5643 5643 5643 5643 5643 5644 5643 5643 5643 5642
5605 5605 5605 5607 5609 5610 5611 5612 5613 5614 5615 5617 5614 5613 5613 5614 5614 5614 5614 5615 5619 5620 5627 5630 5631 5632 5633 5634 5636 5637 5637 5637 5637 5637 5637 5637 5638 5637 5637 5638 5638 5637 5637
5597 5599 5600 5601 5603 5605 5606 5607 5608 5608 5609 5610 5611 5609 5606 5607 5607 5607 5608 5615 5621 5622 5624 5626 5627 5628 5628 5629 5629 5629 5630 5630 5631 5631 5631 5631 5631 5630 5630 5631 5632 5629 5628
5590 5589 5590 5594 5596 5598 5599 5600 5601 5601 5602 5602 5603 5604 5603 5604 5606 5606 5607 5612 5616 5618 5619 5620 5621 5621 5621 5622 5622 5622 5622 5623 5623 5623 5623 5623 5623 5622 5622 5622 5623 5623 5623
5585 5585 5583 5586 5589 5590 5591 5592 5593 5594 5595 5596 5596 5597 5594 5598 5600 5601 5603 5606 5608 5611 5612 5613 5613 5614 5614 5615 5616 5616 5615 5616 5616 5616 5616 5615 5615 5615 5615 5616 5616 5616 5616
5577 5580 5580 5581 5582 5582 5584 5585 5585 5586 5587 5588 5589 5590 5586 5590 5593 5594 5597 5599 5601 5602 5603 5604 5605 5606 5606 5607 5607 5608 5608 5608 5608 5608 5608 5608 5607 5608 5608 5608 5608 5608 5608
5570 5571 5573 5573 5574 5572 5575 5577 5578 5579 5579 5580 5581 5582 5582 5583 5585 5586 5588 5590 5591 5593 5594 5595 5595 5596 5597 5597 5597 5599 5599 5599 5599 5599 5599 5599 5600 5600 5601 5601 5601 5601 5601
5562 5563 5564 5565 5566 5567 5567 5568 5569 5570 5572 5572 5573 5574 5575 5575 5576 5578 5580 5581 5583 5583 5584 5585 5586 5587 5587 5587 5588 5589 5590 5589 5589 5590 5590 5591 5592 5593 5594 5594 5594 5595 5595
5554 5555 5556 5557 5558 5558 5559 5559 5560 5561 5562 5563 5564 5565 5566 5567 5569 5570 5571 5573 5573 5575 5576 5577 5578 5578 5579 5579 5579 5579 5578 5577 5578 5579 5581 5583 5584 5585 5586 5586 5587 5588 5589
5547 5548 5548 5549 5549 5550 5550 5551 5552 5552 5553 5554 5555 5556 5557 5559 5561 5562 5563 5564 5564 5565 5566 5568 5569 5569 5569 5569 5569 5567 5567 5567 5568 5568 5571 5574 5576 5577 5578 5579 5580 5581 5582